Location: Clarion
(42.7316°N, 93.7330°W)
Time: 09:53:55
(UTC+00:00)

NOSS 0 Rocket - Pass Details

Date: 22 April 2026
Orbit: 935 x 953 km, 70.0° (Epoch: 17 May)

Event Time Altitude Azimuth Distance (km) Brightness Sun altitude
Rises 10:35:12 0° 333° (NNW) 3,621 7.0 -8.9°
Reaches altitude 10° 10:37:45 10° 333° (NNW) 2,670 6.3 -8.4°
Maximum altitude 10:43:57 86° 247° (WSW) 948 4.0 -7.4°
Drops below altitude 10° 10:50:06 10° 158° (SSE) 2,641 6.3 -6.4°
Sets 10:52:36 0° 158° (SSE) 3,580 7.0 -6.0°
